#Datum;Uhrzeit;WR;Pac;DaySum;Status;WR;Pac;DaySum;Status;Pdc1;Udc;Temp;WR;Pac;DaySum;Status;Pdc1;Udc;Temp;WR;Pac;DaySum;Status;Pdc1;Udc;Temp;WR;Pac;DaySum;Status;Pdc1;Pdc2;Udc1;Udc2;Temp;WR;Pac;DaySum;Status;Pdc1;Pdc2;Udc1;Udc2;Temp;WR;Pac;DaySum;Status;Pdc1;Udc;Temp;WR;Pac;DaySum;Status;Pdc1;Udc;Temp;WR;Pac;DaySum;Status;Pdc1;Udc;Temp
24.12.18;23:55:00;1;327;9309;0;2;0;4742;0;0;0;0;3;0;2997;0;0;0;0;4;0;3856;0;0;0;0;5;0;10474;0;0;0;0;0;0;6;0;7524;0;0;0;0;0;0;7;0;6549;0;0;0;0;8;0;6542;0;0;0;0;9;0;3517;0;0;0;0
24.12.18;23:50:00;1;328;9282;0;2;0;4742;0;0;0;0;3;0;2997;0;0;0;0;4;0;3856;0;0;0;0;5;0;10474;0;0;0;0;0;0;6;0;7524;0;0;0;0;0;0;7;0;6549;0;0;0;0;8;0;6542;0;0;0;0;9;0;3517;0;0;0;0
24.12.18;23:45:00;1;328;9254;0;2;0;4742;0;0;0;0;3;0;2997;0;0;0;0;4;0;3856;0;0;0;0;5;0;10474;0;0;0;0;0;0;6;0;7524;0;0;0;0;0;0;7;0;6549;0;0;0;0;8;0;6542;0;0;0;0;9;0;3517;0;0;0;0
24.12.18;23:40:00;1;335;9227;0;2;0;4742;0;0;0;0;3;0;2997;0;0;0;0;4;0;3856;0;0;0;0;5;0;10474;0;0;0;0;0;0;6;0;7524;0;0;0;0;0;0;7;0;6549;0;0;0;0;8;0;6542;0;0;0;0;9;0;3517;0;0;0;0
24.12.18;23:35:00;1;369;9199;0;2;0;4742;0;0;0;0;3;0;2997;0;0;0;0;4;0;3856;0;0;0;0;5;0;10474;0;0;0;0;0;0;6;0;7524;0;0;0;0;0;0;7;0;6549;0;0;0;0;8;0;6542;0;0;0;0;9;0;3517;0;0;0;0
24.12.18;23:30:00;1;372;9168;0;2;0;4742;0;0;0;0;3;0;2997;0;0;0;0;4;0;3856;0;0;0;0;5;0;10474;0;0;0;0;0;0;6;0;7524;0;0;0;0;0;0;7;0;6549;0;0;0;0;8;0;6542;0;0;0;0;9;0;3517;0;0;0;0
24.12.18;23:25:00;1;333;9137;0;2;0;4742;0;0;0;0;3;0;2997;0;0;0;0;4;0;3856;0;0;0;0;5;0;10474;0;0;0;0;0;0;6;0;7524;0;0;0;0;0;0;7;0;6549;0;0;0;0;8;0;6542;0;0;0;0;9;0;3517;0;0;0;0
24.12.18;23:20:00;1;323;9110;0;2;0;4742;0;0;0;0;3;0;2997;0;0;0;0;4;0;3856;0;0;0;0;5;0;10474;0;0;0;0;0;0;6;0;7524;0;0;0;0;0;0;7;0;6549;0;0;0;0;8;0;6542;0;0;0;0;9;0;3517;0;0;0;0
24.12.18;23:15:00;1;265;9087;0;2;0;4742;0;0;0;0;3;0;2997;0;0;0;0;4;0;3856;0;0;0;0;5;0;10474;0;0;0;0;0;0;6;0;7524;0;0;0;0;0;0;7;0;6549;0;0;0;0;8;0;6542;0;0;0;0;9;0;3517;0;0;0;0
24.12.18;23:10:00;1;264;9065;0;2;0;4742;0;0;0;0;3;0;2997;0;0;0;0;4;0;3856;0;0;0;0;5;0;10474;0;0;0;0;0;0;6;0;7524;0;0;0;0;0;0;7;0;6549;0;0;0;0;8;0;6542;0;0;0;0;9;0;3517;0;0;0;0
24.12.18;23:05:00;1;265;9043;0;2;0;4742;0;0;0;0;3;0;2997;0;0;0;0;4;0;3856;0;0;0;0;5;0;10474;0;0;0;0;0;0;6;0;7524;0;0;0;0;0;0;7;0;6549;0;0;0;0;8;0;6542;0;0;0;0;9;0;3517;0;0;0;0
24.12.18;23:00:00;1;264;9021;0;2;0;4742;0;0;0;0;3;0;2997;0;0;0;0;4;0;3856;0;0;0;0;5;0;10474;0;0;0;0;0;0;6;0;7524;0;0;0;0;0;0;7;0;6549;0;0;0;0;8;0;6542;0;0;0;0;9;0;3517;0;0;0;0
24.12.18;22:55:00;1;263;8998;0;2;0;4742;0;0;0;0;3;0;2997;0;0;0;0;4;0;3856;0;0;0;0;5;0;10474;2;0;0;0;0;0;6;0;7524;2;0;0;0;0;0;7;0;6549;0;0;0;0;8;0;6542;0;0;0;0;9;0;3517;0;0;0;0
24.12.18;22:50:00;1;260;8977;0;2;0;4742;0;0;0;0;3;0;2997;0;0;0;0;4;0;3856;0;0;0;0;5;0;10474;2;0;0;0;0;0;6;0;7524;2;0;0;0;0;0;7;0;6549;0;0;0;0;8;0;6542;0;0;0;0;9;0;3517;0;0;0;0
24.12.18;22:45:00;1;261;8955;0;2;0;4742;0;0;0;0;3;0;2997;0;0;0;0;4;0;3856;0;0;0;0;5;0;10474;2;0;0;0;0;0;6;0;7524;2;0;0;0;0;0;7;0;6549;0;0;0;0;8;0;6542;0;0;0;0;9;0;3517;0;0;0;0
24.12.18;22:40:00;1;296;8933;0;2;0;4742;0;0;0;0;3;0;2997;0;0;0;0;4;0;3856;0;0;0;0;5;0;10474;2;0;0;0;0;0;6;0;7524;2;0;0;0;0;0;7;0;6549;0;0;0;0;8;0;6542;0;0;0;0;9;0;3517;0;0;0;0
24.12.18;22:35:00;1;302;8908;0;2;0;4742;0;0;0;0;3;0;2997;0;0;0;0;4;0;3856;0;0;0;0;5;0;10474;2;0;0;0;0;0;6;0;7524;2;0;0;0;0;0;7;0;6549;0;0;0;0;8;0;6542;0;0;0;0;9;0;3517;0;0;0;0
24.12.18;22:30:00;1;305;8883;0;2;0;4742;0;0;0;0;3;0;2997;0;0;0;0;4;0;3856;0;0;0;0;5;0;10474;2;0;0;0;0;0;6;0;7524;2;0;0;0;0;0;7;0;6549;0;0;0;0;8;0;6542;0;0;0;0;9;0;3517;0;0;0;0
24.12.18;22:25:00;1;275;8857;0;2;0;4742;0;0;0;0;3;0;2997;0;0;0;0;4;0;3856;0;0;0;0;5;0;10474;2;0;0;0;0;0;6;0;7524;2;0;0;0;0;0;7;0;6549;0;0;0;0;8;0;6542;0;0;0;0;9;0;3517;0;0;0;0
24.12.18;22:20:00;1;262;8834;0;2;0;4742;0;0;0;0;3;0;2997;0;0;0;0;4;0;3856;0;0;0;0;5;0;10474;2;0;0;0;0;0;6;0;7524;2;0;0;0;0;0;7;0;6549;0;0;0;0;8;0;6542;0;0;0;0;9;0;3517;0;0;0;0
24.12.18;22:15:00;1;268;8812;0;2;0;4742;0;0;0;0;3;0;2997;0;0;0;0;4;0;3856;0;0;0;0;5;0;10474;2;0;0;0;0;0;6;0;7524;2;0;0;0;0;0;7;0;6549;0;0;0;0;8;0;6542;0;0;0;0;9;0;3517;0;0;0;0
24.12.18;22:10:00;1;267;8790;0;2;0;4742;0;0;0;0;3;0;2997;0;0;0;0;4;0;3856;0;0;0;0;5;0;10474;2;0;0;0;0;0;6;0;7524;2;0;0;0;0;0;7;0;6549;0;0;0;0;8;0;6542;0;0;0;0;9;0;3517;0;0;0;0
24.12.18;22:05:00;1;263;8768;0;2;0;4742;0;0;0;0;3;0;2997;0;0;0;0;4;0;3856;0;0;0;0;5;0;10474;2;0;0;0;0;0;6;0;7524;2;0;0;0;0;0;7;0;6549;0;0;0;0;8;0;6542;0;0;0;0;9;0;3517;0;0;0;0
24.12.18;22:00:00;1;265;8746;0;2;0;4742;0;0;0;0;3;0;2997;0;0;0;0;4;0;3856;0;0;0;0;5;0;10474;2;0;0;0;0;0;6;0;7524;2;0;0;0;0;0;7;0;6549;0;0;0;0;8;0;6542;0;0;0;0;9;0;3517;0;0;0;0
24.12.18;21:55:00;1;266;8724;0;2;0;4742;0;0;0;0;3;0;2997;0;0;0;0;4;0;3856;0;0;0;0;5;0;10474;2;0;0;0;0;0;6;0;7524;2;0;0;0;0;0;7;0;6549;0;0;0;0;8;0;6542;0;0;0;0;9;0;3517;0;0;0;0
24.12.18;21:50:00;1;265;8701;0;2;0;4742;0;0;0;0;3;0;2997;0;0;0;0;4;0;3856;0;0;0;0;5;0;10474;2;0;0;0;0;0;6;0;7524;2;0;0;0;0;0;7;0;6549;0;0;0;0;8;0;6542;0;0;0;0;9;0;3517;0;0;0;0
24.12.18;21:45:00;1;318;8679;0;2;0;4742;0;0;0;0;3;0;2997;0;0;0;0;4;0;3856;0;0;0;0;5;0;10474;2;0;0;0;0;0;6;0;7524;2;0;0;0;0;0;7;0;6549;0;0;0;0;8;0;6542;0;0;0;0;9;0;3517;0;0;0;0
24.12.18;21:40:00;1;369;8652;0;2;0;4742;0;0;0;0;3;0;2997;0;0;0;0;4;0;3856;0;0;0;0;5;0;10474;2;0;0;0;0;0;6;0;7524;2;0;0;0;0;0;7;0;6549;0;0;0;0;8;0;6542;0;0;0;0;9;0;3517;0;0;0;0
24.12.18;21:35:00;1;371;8621;0;2;0;4742;0;0;0;0;3;0;2997;0;0;0;0;4;0;3856;0;0;0;0;5;0;10474;2;0;0;0;0;0;6;0;7524;2;0;0;0;0;0;7;0;6549;0;0;0;0;8;0;6542;0;0;0;0;9;0;3517;0;0;0;0
24.12.18;21:30:00;1;385;8590;0;2;0;4742;0;0;0;0;3;0;2997;0;0;0;0;4;0;3856;0;0;0;0;5;0;10474;2;0;0;0;0;0;6;0;7524;2;0;0;0;0;0;7;0;6549;0;0;0;0;8;0;6542;0;0;0;0;9;0;3517;0;0;0;0
24.12.18;21:25:00;1;329;8561;0;2;0;4742;0;0;0;0;3;0;2997;0;0;0;0;4;0;3856;0;0;0;0;5;0;10474;2;0;0;0;0;0;6;0;7524;2;0;0;0;0;0;7;0;6549;0;0;0;0;8;0;6542;0;0;0;0;9;0;3517;0;0;0;0
24.12.18;21:20:00;1;331;8534;0;2;0;4742;0;0;0;0;3;0;2997;0;0;0;0;4;0;3856;0;0;0;0;5;0;10474;2;0;0;0;0;0;6;0;7524;2;0;0;0;0;0;7;0;6549;0;0;0;0;8;0;6542;0;0;0;0;9;0;3517;0;0;0;0
24.12.18;21:15:00;1;329;8506;0;2;0;4742;0;0;0;0;3;0;2997;0;0;0;0;4;0;3856;0;0;0;0;5;0;10474;2;0;0;0;0;0;6;0;7524;2;0;0;0;0;0;7;0;6549;0;0;0;0;8;0;6542;0;0;0;0;9;0;3517;0;0;0;0
24.12.18;21:10:00;1;312;8478;0;2;0;4742;0;0;0;0;3;0;2997;0;0;0;0;4;0;3856;0;0;0;0;5;0;10474;2;0;0;0;0;0;6;0;7524;2;0;0;0;0;0;7;0;6549;0;0;0;0;8;0;6542;0;0;0;0;9;0;3517;0;0;0;0
24.12.18;21:05:00;1;266;8453;0;2;0;4742;0;0;0;0;3;0;2997;0;0;0;0;4;0;3856;0;0;0;0;5;0;10474;2;0;0;0;0;0;6;0;7524;2;0;0;0;0;0;7;0;6549;0;0;0;0;8;0;6542;0;0;0;0;9;0;3517;0;0;0;0
24.12.18;21:00:00;1;266;8430;0;2;0;4742;0;0;0;0;3;0;2997;0;0;0;0;4;0;3856;0;0;0;0;5;0;10474;2;0;0;0;0;0;6;0;7524;2;0;0;0;0;0;7;0;6549;0;0;0;0;8;0;6542;0;0;0;0;9;0;3517;0;0;0;0
24.12.18;20:55:00;1;265;8408;0;2;0;4742;0;0;0;0;3;0;2997;0;0;0;0;4;0;3856;0;0;0;0;5;0;10474;2;0;0;0;0;0;6;0;7524;2;0;0;0;0;0;7;0;6549;0;0;0;0;8;0;6542;0;0;0;0;9;0;3517;0;0;0;0
24.12.18;20:50:00;1;290;8386;0;2;0;4742;0;0;0;0;3;0;2997;0;0;0;0;4;0;3856;0;0;0;0;5;0;10474;2;0;0;0;0;0;6;0;7524;2;0;0;0;0;0;7;0;6549;0;0;0;0;8;0;6542;0;0;0;0;9;0;3517;0;0;0;0
24.12.18;20:45:00;1;306;8362;0;2;0;4742;0;0;0;0;3;0;2997;0;0;0;0;4;0;3856;0;0;0;0;5;0;10474;2;0;0;0;0;0;6;0;7524;2;0;0;0;0;0;7;0;6549;0;0;0;0;8;0;6542;0;0;0;0;9;0;3517;0;0;0;0
24.12.18;20:40:00;1;313;8336;0;2;0;4742;0;0;0;0;3;0;2997;0;0;0;0;4;0;3856;0;0;0;0;5;0;10474;2;0;0;0;0;0;6;0;7524;2;0;0;0;0;0;7;0;6549;0;0;0;0;8;0;6542;0;0;0;0;9;0;3517;0;0;0;0
24.12.18;20:35:00;1;324;8310;0;2;0;4742;0;0;0;0;3;0;2997;0;0;0;0;4;0;3856;0;0;0;0;5;0;10474;2;0;0;0;0;0;6;0;7524;2;0;0;0;0;0;7;0;6549;0;0;0;0;8;0;6542;0;0;0;0;9;0;3517;0;0;0;0
24.12.18;20:30:00;1;264;8286;0;2;0;4742;0;0;0;0;3;0;2997;0;0;0;0;4;0;3856;0;0;0;0;5;0;10474;2;0;0;0;0;0;6;0;7524;2;0;0;0;0;0;7;0;6549;0;0;0;0;8;0;6542;0;0;0;0;9;0;3517;0;0;0;0
24.12.18;20:25:00;1;267;8264;0;2;0;4742;0;0;0;0;3;0;2997;0;0;0;0;4;0;3856;0;0;0;0;5;0;10474;2;0;0;0;0;0;6;0;7524;2;0;0;0;0;0;7;0;6549;0;0;0;0;8;0;6542;0;0;0;0;9;0;3517;0;0;0;0
24.12.18;20:20:00;1;266;8241;0;2;0;4742;0;0;0;0;3;0;2997;0;0;0;0;4;0;3856;0;0;0;0;5;0;10474;2;0;0;0;0;0;6;0;7524;2;0;0;0;0;0;7;0;6549;0;0;0;0;8;0;6542;0;0;0;0;9;0;3517;0;0;0;0
24.12.18;20:15:00;1;266;8219;0;2;0;4742;0;0;0;0;3;0;2997;0;0;0;0;4;0;3856;0;0;0;0;5;0;10474;2;0;0;0;0;0;6;0;7524;2;0;0;0;0;0;7;0;6549;0;0;0;0;8;0;6542;0;0;0;0;9;0;3517;0;0;0;0
24.12.18;20:10:00;1;264;8197;0;2;0;4742;0;0;0;0;3;0;2997;0;0;0;0;4;0;3856;0;0;0;0;5;0;10474;2;0;0;0;0;0;6;0;7524;2;0;0;0;0;0;7;0;6549;0;0;0;0;8;0;6542;0;0;0;0;9;0;3517;0;0;0;0
24.12.18;20:05:00;1;266;8175;0;2;0;4742;0;0;0;0;3;0;2997;0;0;0;0;4;0;3856;0;0;0;0;5;0;10474;2;0;0;0;0;0;6;0;7524;2;0;0;0;0;0;7;0;6549;0;0;0;0;8;0;6542;0;0;0;0;9;0;3517;0;0;0;0
24.12.18;20:00:00;1;267;8152;0;2;0;4742;0;0;0;0;3;0;2997;0;0;0;0;4;0;3856;0;0;0;0;5;0;10474;2;0;0;0;0;0;6;0;7524;2;0;0;0;0;0;7;0;6549;0;0;0;0;8;0;6542;0;0;0;0;9;0;3517;0;0;0;0
24.12.18;19:55:00;1;278;8130;0;2;0;4742;0;0;0;0;3;0;2997;0;0;0;0;4;0;3856;0;0;0;0;5;0;10474;2;0;0;0;0;0;6;0;7524;2;0;0;0;0;0;7;0;6549;0;0;0;0;8;0;6542;0;0;0;0;9;0;3517;0;0;0;0
24.12.18;19:50:00;1;307;8106;0;2;0;4742;0;0;0;0;3;0;2997;0;0;0;0;4;0;3856;0;0;0;0;5;0;10474;2;0;0;0;0;0;6;0;7524;2;0;0;0;0;0;7;0;6549;0;0;0;0;8;0;6542;0;0;0;0;9;0;3517;0;0;0;0
24.12.18;19:45:00;1;307;8081;0;2;0;4742;0;0;0;0;3;0;2997;0;0;0;0;4;0;3856;0;0;0;0;5;0;10474;2;0;0;0;0;0;6;0;7524;2;0;0;0;0;0;7;0;6549;0;0;0;0;8;0;6542;0;0;0;0;9;0;3517;0;0;0;0
24.12.18;19:40:00;1;320;8055;0;2;0;4742;0;0;0;0;3;0;2997;0;0;0;0;4;0;3856;0;0;0;0;5;0;10474;2;0;0;0;0;0;6;0;7524;2;0;0;0;0;0;7;0;6549;0;0;0;0;8;0;6542;0;0;0;0;9;0;3517;0;0;0;0
24.12.18;19:35:00;1;266;8030;0;2;0;4742;0;0;0;0;3;0;2997;0;0;0;0;4;0;3856;0;0;0;0;5;0;10474;2;0;0;0;0;0;6;0;7524;2;0;0;0;0;0;7;0;6549;0;0;0;0;8;0;6542;0;0;0;0;9;0;3517;0;0;0;0
24.12.18;19:30:00;1;266;8008;0;2;0;4742;0;0;0;0;3;0;2997;0;0;0;0;4;0;3856;0;0;0;0;5;0;10474;2;0;0;0;0;0;6;0;7524;2;0;0;0;0;0;7;0;6549;0;0;0;0;8;0;6542;0;0;0;0;9;0;3517;0;0;0;0
24.12.18;19:25:00;1;302;7985;0;2;0;4742;0;0;0;0;3;0;2997;0;0;0;0;4;0;3856;0;0;0;0;5;0;10474;2;0;0;0;0;0;6;0;7524;2;0;0;0;0;0;7;0;6549;0;0;0;0;8;0;6542;0;0;0;0;9;0;3517;0;0;0;0
24.12.18;19:20:00;1;329;7959;0;2;0;4742;0;0;0;0;3;0;2997;0;0;0;0;4;0;3856;0;0;0;0;5;0;10474;2;0;0;0;0;0;6;0;7524;2;0;0;0;0;0;7;0;6549;0;0;0;0;8;0;6542;0;0;0;0;9;0;3517;0;0;0;0
24.12.18;19:15:00;1;330;7932;0;2;0;4742;0;0;0;0;3;0;2997;0;0;0;0;4;0;3856;0;0;0;0;5;0;10474;2;0;0;0;0;0;6;0;7524;2;0;0;0;0;0;7;0;6549;0;0;0;0;8;0;6542;0;0;0;0;9;0;3517;0;0;0;0
24.12.18;19:10:00;1;331;7904;0;2;0;4742;0;0;0;0;3;0;2997;0;0;0;0;4;0;3856;0;0;0;0;5;0;10474;2;0;0;0;0;0;6;0;7524;2;0;0;0;0;0;7;0;6549;0;0;0;0;8;0;6542;0;0;0;0;9;0;3517;0;0;0;0
24.12.18;19:05:00;1;330;7876;0;2;0;4742;0;0;0;0;3;0;2997;0;0;0;0;4;0;3856;0;0;0;0;5;0;10474;2;0;0;0;0;0;6;0;7524;2;0;0;0;0;0;7;0;6549;0;0;0;0;8;0;6542;0;0;0;0;9;0;3517;0;0;0;0
24.12.18;19:00:00;1;335;7849;0;2;0;4742;0;0;0;0;3;0;2997;0;0;0;0;4;0;3856;0;0;0;0;5;0;10474;2;0;0;0;0;0;6;0;7524;2;0;0;0;0;0;7;0;6549;0;0;0;0;8;0;6542;0;0;0;0;9;0;3517;0;0;0;0
24.12.18;18:55:00;1;370;7820;0;2;0;4742;0;0;0;0;3;0;2997;0;0;0;0;4;0;3856;0;0;0;0;5;0;10474;2;0;0;0;0;0;6;0;7524;2;0;0;0;0;0;7;0;6549;0;0;0;0;8;0;6542;0;0;0;0;9;0;3517;0;0;0;0
24.12.18;18:50:00;1;357;7789;0;2;0;4742;0;0;0;0;3;0;2997;0;0;0;0;4;0;3856;0;0;0;0;5;0;10474;2;0;0;0;0;0;6;0;7524;2;0;0;0;0;0;7;0;6549;0;0;0;0;8;0;6542;0;0;0;0;9;0;3517;0;0;0;0
24.12.18;18:45:00;1;332;7760;0;2;0;4742;0;0;0;0;3;0;2997;0;0;0;0;4;0;3856;0;0;0;0;5;0;10474;2;0;0;0;0;0;6;0;7524;2;0;0;0;0;0;7;0;6549;0;0;0;0;8;0;6542;0;0;0;0;9;0;3517;0;0;0;0
24.12.18;18:40:00;1;267;7734;0;2;0;4742;0;0;0;0;3;0;2997;0;0;0;0;4;0;3856;0;0;0;0;5;0;10474;2;0;0;0;0;0;6;0;7524;2;0;0;0;0;0;7;0;6549;0;0;0;0;8;0;6542;0;0;0;0;9;0;3517;0;0;0;0
24.12.18;18:35:00;1;267;7711;0;2;0;4742;0;0;0;0;3;0;2997;0;0;0;0;4;0;3856;0;0;0;0;5;0;10474;2;0;0;0;0;0;6;0;7524;2;0;0;0;0;0;7;0;6549;0;0;0;0;8;0;6542;0;0;0;0;9;0;3517;0;0;0;0
24.12.18;18:30:00;1;268;7689;0;2;0;4742;0;0;0;0;3;0;2997;0;0;0;0;4;0;3856;0;0;0;0;5;0;10474;2;0;0;0;0;0;6;0;7524;2;0;0;0;0;0;7;0;6549;0;0;0;0;8;0;6542;0;0;0;0;9;0;3517;0;0;0;0
24.12.18;18:25:00;1;267;7667;0;2;0;4742;0;0;0;0;3;0;2997;0;0;0;0;4;0;3856;0;0;0;0;5;0;10474;2;0;0;0;0;0;6;0;7524;2;0;0;0;0;0;7;0;6549;0;0;0;0;8;0;6542;0;0;0;0;9;0;3517;0;0;0;0
24.12.18;18:20:00;1;267;7644;0;2;0;4742;0;0;0;0;3;0;2997;0;0;0;0;4;0;3856;0;0;0;0;5;0;10474;2;0;0;0;0;0;6;0;7524;2;0;0;0;0;0;7;0;6549;0;0;0;0;8;0;6542;0;0;0;0;9;0;3517;0;0;0;0
24.12.18;18:15:00;1;268;7622;0;2;0;4742;0;0;0;0;3;0;2997;0;0;0;0;4;0;3856;0;0;0;0;5;0;10474;2;0;0;0;0;0;6;0;7524;2;0;0;0;0;0;7;0;6549;0;0;0;0;8;0;6542;0;0;0;0;9;0;3517;0;0;0;0
24.12.18;18:10:00;1;268;7600;0;2;0;4742;0;0;0;0;3;0;2997;0;0;0;0;4;0;3856;0;0;0;0;5;0;10474;2;0;0;0;0;0;6;0;7524;2;0;0;0;0;0;7;0;6549;0;0;0;0;8;0;6542;0;0;0;0;9;0;3517;0;0;0;0
24.12.18;18:05:00;1;275;7577;0;2;0;4742;0;0;0;0;3;0;2997;0;0;0;0;4;0;3856;0;0;0;0;5;0;10474;2;0;0;0;0;0;6;0;7524;2;0;0;0;0;0;7;0;6549;0;0;0;0;8;0;6542;0;0;0;0;9;0;3517;0;0;0;0
24.12.18;18:00:00;1;308;7554;0;2;0;4742;0;0;0;0;3;0;2997;0;0;0;0;4;0;3856;0;0;0;0;5;0;10474;2;0;0;0;0;0;6;0;7524;2;0;0;0;0;0;7;0;6549;0;0;0;0;8;0;6542;0;0;0;0;9;0;3517;0;0;0;0
24.12.18;17:55:00;1;318;7528;0;2;0;4742;0;0;0;0;3;0;2997;0;0;0;0;4;0;3856;0;0;0;0;5;0;10474;2;0;0;0;0;0;6;0;7524;2;0;0;0;0;0;7;0;6549;0;0;0;0;8;0;6542;0;0;0;0;9;0;3517;0;0;0;0
24.12.18;17:50:00;1;320;7502;0;2;0;4742;0;0;0;0;3;0;2997;0;0;0;0;4;0;3856;0;0;0;0;5;0;10474;2;0;0;0;0;0;6;0;7524;2;0;0;0;0;0;7;0;6549;0;0;0;0;8;0;6542;0;0;0;0;9;0;3517;0;0;0;0
24.12.18;17:45:00;1;267;7475;0;2;0;4742;0;0;0;0;3;0;2997;0;0;0;0;4;0;3856;0;0;0;0;5;0;10474;2;0;0;0;0;0;6;0;7524;2;0;0;0;0;0;7;0;6549;0;0;0;0;8;0;6542;0;0;0;0;9;0;3517;0;0;0;0
24.12.18;17:40:00;1;272;7452;0;2;0;4742;0;0;0;0;3;0;2997;0;0;0;0;4;0;3856;0;0;0;0;5;0;10474;2;0;0;0;0;0;6;0;7524;2;0;0;0;0;0;7;0;6549;0;0;0;0;8;0;6542;0;0;0;0;9;0;3517;0;0;0;0
24.12.18;17:35:00;1;268;7430;0;2;0;4742;0;0;0;0;3;0;2997;0;0;0;0;4;0;3856;0;0;0;0;5;0;10474;2;0;0;0;0;0;6;0;7524;2;0;0;0;0;0;7;0;6549;0;0;0;0;8;0;6542;0;0;0;0;9;0;3517;0;0;0;0
24.12.18;17:30:00;1;267;7407;0;2;0;4742;0;0;0;0;3;0;2997;0;0;0;0;4;0;3856;0;0;0;0;5;0;10474;2;0;0;0;0;0;6;0;7524;2;0;0;0;0;0;7;0;6549;0;0;0;0;8;0;6542;0;0;0;0;9;0;3517;0;0;0;0
24.12.18;17:25:00;1;267;7385;0;2;0;4742;0;0;0;0;3;0;2997;0;0;0;0;4;0;3856;0;0;0;0;5;0;10474;2;0;0;0;0;0;6;0;7524;2;0;0;0;0;0;7;0;6549;0;0;0;0;8;0;6542;0;0;0;0;9;0;3517;0;0;0;0
24.12.18;17:20:00;1;268;7363;0;2;0;4742;0;0;0;0;3;0;2997;0;0;0;0;4;0;3856;0;0;0;0;5;0;10474;2;0;0;0;0;0;6;0;7524;2;0;0;0;0;0;7;0;6549;0;0;0;0;8;0;6542;0;0;0;0;9;0;3517;0;0;0;0
24.12.18;17:15:00;1;284;7340;0;2;0;4742;0;0;0;0;3;0;2997;0;0;0;0;4;0;3856;0;0;0;0;5;0;10474;2;0;0;0;0;0;6;0;7524;2;0;0;0;0;0;7;0;6549;0;0;0;0;8;0;6542;0;0;0;0;9;0;3517;0;0;0;0
24.12.18;17:10:00;1;326;7316;0;2;0;4742;0;0;0;0;3;0;2997;0;0;0;0;4;0;3856;0;0;0;0;5;0;10474;2;0;0;0;0;0;6;0;7524;2;0;0;0;0;0;7;0;6549;0;0;0;0;8;0;6542;0;0;0;0;9;0;3517;0;0;0;0
24.12.18;17:05:00;1;367;7288;0;2;0;4742;0;0;0;0;3;0;2997;0;0;0;0;4;0;3856;0;0;0;0;5;0;10474;2;0;0;0;0;0;6;0;7524;2;0;0;0;0;0;7;0;6549;0;0;0;0;8;0;6542;0;0;0;0;9;0;3517;0;0;0;0
24.12.18;17:00:00;1;369;7258;0;2;0;4742;0;0;0;0;3;0;2997;0;0;0;0;4;0;3856;0;0;0;0;5;0;10474;2;0;0;0;0;0;6;0;7524;2;0;0;0;0;0;7;0;6549;0;0;0;0;8;0;6542;0;0;0;0;9;0;3517;0;0;0;0
24.12.18;16:55:00;1;373;7227;0;2;0;4742;0;0;0;0;3;0;2997;0;0;0;0;4;0;3856;0;0;0;0;5;0;10474;2;0;0;0;0;0;6;0;7524;2;0;0;0;0;0;7;0;6549;0;0;0;0;8;0;6542;0;0;0;0;9;0;3517;0;0;0;0
24.12.18;16:50:00;1;427;7196;0;2;0;4742;0;0;0;0;3;0;2997;0;0;0;0;4;0;3856;0;0;0;0;5;0;10474;2;0;0;0;0;0;6;0;7524;2;0;0;0;0;0;7;0;6549;0;0;0;0;8;0;6542;0;0;0;0;9;0;3517;0;0;0;0
24.12.18;16:45:00;1;329;7167;0;2;0;4742;0;0;0;0;3;0;2997;0;0;0;0;4;0;3856;0;0;0;0;5;0;10474;2;0;0;0;0;0;6;0;7524;2;0;0;0;0;0;7;0;6549;0;0;0;0;8;0;6542;0;0;0;0;9;0;3517;0;0;0;0
24.12.18;16:40:00;1;300;7140;0;2;0;4742;0;0;0;0;3;0;2997;0;0;35;2;4;0;3856;0;0;0;0;5;0;10474;2;0;0;0;0;0;6;0;7524;0;0;0;0;0;0;7;0;6549;0;0;0;0;8;0;6542;0;0;0;0;9;0;3517;0;0;0;0
24.12.18;16:35:00;1;228;7116;0;2;0;4742;0;0;172;7;3;0;2997;6;0;285;14;4;0;3856;0;0;0;0;5;0;10474;2;0;0;0;0;0;6;0;7524;2;0;0;0;0;0;7;0;6549;0;0;0;0;8;0;6542;0;0;0;0;9;0;3517;0;0;0;0
24.12.18;16:30:00;1;222;7097;0;2;0;4742;6;0;296;11;3;0;2997;6;0;336;14;4;0;3856;2;0;79;11;5;0;10474;2;0;0;0;0;0;6;0;7524;2;0;0;0;0;0;7;0;6549;0;0;0;0;8;0;6542;0;0;0;0;9;0;3517;0;0;0;0
24.12.18;16:25:00;1;219;7078;0;2;0;4742;6;0;316;11;3;0;2997;6;0;380;14;4;0;3856;1;0;99;11;5;0;10474;2;0;1;155;154;11;6;0;7524;0;4;0;151;85;10;7;0;6549;0;0;0;0;8;0;6542;0;0;0;0;9;0;3517;0;0;0;0
24.12.18;16:20:00;1;219;7060;0;2;0;4742;6;0;349;12;3;0;2997;6;1;418;15;4;0;3856;1;0;135;11;5;0;10474;23;0;0;380;413;23;6;0;7524;23;8;2;513;180;21;7;0;6549;0;0;222;13;8;0;6542;0;0;227;12;9;0;3517;6;0;288;11
24.12.18;16:15:00;1;220;7041;0;2;0;4742;6;0;363;12;3;0;2997;6;2;434;15;4;0;3856;1;0;155;12;5;0;10474;26;0;0;399;403;23;6;0;7524;23;7;3;326;392;22;7;0;6549;6;0;296;16;8;0;6542;6;0;303;15;9;0;3517;6;0;316;11
24.12.18;16:10:00;1;263;7023;0;2;0;4742;6;0;386;12;3;0;2997;6;2;461;15;4;0;3856;1;0;195;12;5;0;10474;26;0;0;423;654;23;6;0;7524;23;7;3;449;566;23;7;0;6549;6;0;357;16;8;0;6542;6;0;370;16;9;0;3517;6;0;393;12
24.12.18;16:05:00;1;259;7001;0;2;0;4742;6;0;413;12;3;0;2997;6;0;525;15;4;0;3856;1;0;237;13;5;80;10474;4;15;19;382;613;24;6;49;7524;4;14;15;471;447;24;7;0;6549;6;2;437;16;8;2;6542;6;4;439;16;9;1;3517;6;2;482;12
24.12.18;16:00:00;1;264;6979;0;2;1;4742;6;7;412;13;3;2;2997;4;11;489;15;4;1;3856;3;1;199;13;5;100;10467;4;29;29;382;613;24;6;66;7519;4;33;37;471;447;24;7;0;6549;6;4;463;17;8;1;6542;6;7;444;16;9;4;3517;6;5;485;12
24.12.18;15:55:00;1;231;6957;0;2;57;4741;4;87;363;13;3;6;2997;3;13;534;15;4;26;3856;3;28;198;13;5;174;10459;4;66;60;382;614;24;6;118;7513;4;53;58;471;447;24;7;32;6549;6;56;390;17;8;31;6542;6;57;387;16;9;0;3517;6;0;568;12
24.12.18;15:50:00;1;222;6938;0;2;94;4737;4;126;366;13;3;28;2996;6;47;522;16;4;53;3854;3;55;198;13;5;236;10444;4;106;93;382;614;24;6;155;7503;4;75;77;471;447;24;7;78;6546;4;115;434;17;8;72;6540;4;117;450;17;9;14;3517;4;23;541;12
24.12.18;15:45:00;1;221;6919;0;2;142;4729;4;178;384;13;3;66;2994;4;96;491;16;4;99;3850;3;103;215;13;5;295;10424;4;134;120;382;614;24;6;193;7490;4;95;94;471;447;24;7;161;6540;4;193;452;17;8;156;6534;4;193;451;17;9;85;3516;4;111;470;12
24.12.18;15:40:00;1;221;6901;0;2;66;4717;4;100;380;13;3;5;2989;6;11;544;16;4;31;3842;3;33;199;13;5;175;10400;4;69;68;382;614;25;6;116;7474;4;58;64;471;447;24;7;63;6527;4;102;469;17;8;66;6521;4;105;470;17;9;14;3509;4;22;535;12
24.12.18;15:35:00;1;222;6882;0;2;55;4712;4;89;379;13;3;6;2989;6;12;530;16;4;21;3839;3;22;199;14;5;160;10386;4;61;57;382;614;25;6;107;7465;4;50;54;471;447;24;7;50;6521;4;75;435;17;8;46;6515;4;74;444;16;9;5;3507;3;10;549;12
24.12.18;15:30:00;1;221;6864;0;2;40;4707;4;67;373;13;3;2;2988;6;8;536;16;4;18;3837;3;19;199;14;5;167;10372;4;66;61;382;613;25;6;108;7456;4;54;60;471;447;23;7;16;6517;6;25;477;17;8;17;6512;6;25;469;17;9;4;3507;6;8;547;13
24.12.18;15:25:00;1;221;6845;0;2;6;4704;6;11;418;13;3;7;2988;4;13;518;16;4;0;3836;3;0;234;14;5;94;10358;4;37;35;408;662;24;6;27;7447;4;17;15;592;576;23;7;6;6516;6;20;453;17;8;1;6510;6;8;485;17;9;1;3506;6;8;530;13
24.12.18;15:20:00;1;220;6827;0;2;0;4703;6;0;412;14;3;3;2987;3;10;481;16;4;0;3836;3;0;223;14;5;54;10352;1;11;13;397;633;25;6;41;7444;1;12;16;498;503;24;7;0;6516;6;1;443;18;8;1;6510;6;1;448;17;9;0;3506;6;1;487;13
24.12.18;15:15:00;1;254;6808;0;2;7;4703;3;20;393;14;3;3;2987;6;6;505;17;4;2;3836;3;2;226;15;5;101;10347;4;29;29;377;599;25;6;0;7440;8;6;4;622;600;24;7;2;6516;6;5;452;18;8;1;6510;6;5;455;18;9;3;3506;6;4;501;13
24.12.18;15:10:00;1;262;6787;0;2;13;4703;6;24;404;15;3;2;2987;6;6;521;17;4;1;3836;3;1;207;15;5;140;10338;4;50;46;377;599;25;6;54;7440;4;30;17;315;212;25;7;2;6516;6;4;474;18;8;2;6510;6;4;475;18;9;3;3506;4;8;492;14
24.12.18;15:05:00;1;269;6765;0;2;115;4701;4;150;372;15;3;56;2987;6;86;508;17;4;79;3835;3;83;206;15;5;309;10326;4;142;125;385;599;25;6;117;7435;4;79;47;316;212;25;7;79;6515;4;124;445;19;8;84;6510;4;122;443;18;9;17;3506;3;28;541;14
24.12.18;15:00:00;1;287;6741;0;2;306;4692;4;346;400;16;3;183;2982;4;225;509;18;4;253;3829;5;264;235;15;5;653;10298;4;321;276;414;646;25;6;232;7424;4;159;101;316;212;25;7;306;6509;4;361;486;19;8;322;6503;4;362;477;18;9;173;3504;4;206;525;14
24.12.18;14:55:00;1;280;6716;0;2;218;4667;4;257;389;16;3;130;2968;4;170;505;18;4;176;3809;5;183;234;15;5;452;10244;4;215;192;387;604;26;6;173;7405;4;114;74;316;212;25;7;230;6484;4;264;473;19;8;230;6477;4;267;475;18;9;128;3490;4;158;489;14
24.12.18;14:50:00;1;281;6693;0;2;106;4648;4;141;360;16;3;23;2956;4;34;530;18;4;64;3793;3;66;198;16;5;260;10208;4;114;103;377;599;26;6;104;7391;4;84;48;315;212;25;7;111;6464;4;147;470;19;8;111;6457;4;153;472;18;9;39;3479;4;50;522;14
24.12.18;14:45:00;1;281;6670;0;2;135;4639;4;175;379;16;3;73;2954;4;113;500;18;4;96;3788;3;100;208;16;5;331;10186;4;161;132;377;599;26;6;126;7383;4;51;31;316;212;25;7;139;6455;4;178;452;19;8;137;6448;4;175;442;19;9;58;3475;6;84;494;15
24.12.18;14:40:00;1;282;6646;0;2;140;4628;4;176;376;17;3;71;2948;4;113;518;19;4;85;3780;3;89;200;16;5;316;10158;4;148;122;377;600;26;6;122;7372;4;60;38;316;212;25;7;146;6444;4;182;474;20;8;142;6437;4;185;459;19;9;66;3471;4;90;494;15
24.12.18;14:35:00;1;281;6622;0;2;120;4617;4;158;376;17;3;65;2942;4;103;489;19;4;66;3773;3;69;204;16;5;299;10132;4;135;119;377;600;26;6;139;7362;4;77;64;330;289;25;7;120;6431;4;160;458;20;8;121;6425;4;157;455;19;9;31;3465;6;42;544;15
24.12.18;14:30:00;1;241;6599;0;2;183;4606;4;222;380;18;3;108;2937;4;147;482;19;4;146;3767;5;152;228;17;5;466;10107;4;232;196;398;613;26;6;343;7349;4;177;183;540;534;25;7;222;6421;4;264;457;20;8;225;6415;4;263;454;20;9;111;3463;4;147;510;16
24.12.18;14:25:00;1;214;6578;0;2;366;4591;4;413;404;18;3;219;2928;4;265;524;19;4;312;3755;5;325;237;17;5;850;10067;4;425;361;417;670;27;6;628;7320;4;326;332;590;570;25;7;444;6403;4;489;480;20;8;430;6396;4;477;466;20;9;223;3454;4;260;535;17
24.12.18;14:20:00;1;249;6560;0;2;860;4562;4;921;400;19;3;524;2910;4;582;515;20;4;693;3730;5;722;249;17;5;1648;9989;4;847;710;428;710;27;6;1239;7262;4;607;592;599;574;25;7;1055;6367;4;1124;472;21;8;1052;6361;4;1116;467;20;9;557;3435;4;611;539;17
24.12.18;14:15:00;1;256;6539;0;2;311;4489;4;355;387;19;3;194;2866;4;236;497;20;4;255;3672;5;266;234;17;5;659;9855;4;331;276;408;629;27;6;508;7159;4;266;277;583;565;25;7;367;6280;4;413;452;21;8;386;6275;4;427;461;20;9;208;3390;4;242;514;17
24.12.18;14:10:00;1;262;6517;0;2;225;4461;4;266;389;19;3;132;2849;4;172;519;20;4;183;3649;5;191;232;17;5;523;9803;4;262;220;404;616;27;6;404;7119;4;201;208;574;560;26;7;228;6247;4;268;463;21;8;219;6240;4;266;478;21;9;122;3371;4;155;508;17
24.12.18;14:05:00;1;227;6495;0;2;282;4442;4;326;391;20;3;169;2837;4;210;514;20;4;233;3634;5;242;231;18;5;672;9759;4;329;287;402;626;28;6;503;7085;4;261;264;589;568;26;7;271;6228;4;313;465;22;8;265;6222;4;310;471;21;9;142;3361;4;176;518;18
24.12.18;14:00:00;1;214;6476;0;2;473;4419;4;526;406;21;3;293;2824;4;341;507;21;4;420;3614;5;437;237;18;5;1065;9700;4;519;449;421;678;28;6;789;7041;4;397;399;594;573;26;7;592;6205;4;642;477;22;8;588;6200;4;639;474;22;9;311;3349;4;354;534;19
24.12.18;13:55:00;1;216;6458;0;2;591;4379;4;648;406;22;3;372;2799;4;423;508;22;4;543;3580;5;565;239;19;5;1434;9609;4;726;620;428;693;28;6;1091;6973;4;562;558;596;586;26;7;691;6156;4;731;484;23;8;681;6152;4;734;479;22;9;364;3323;4;411;526;19
24.12.18;13:50:00;1;215;6440;0;2;674;4330;4;734;407;23;3;423;2768;4;478;522;22;4;608;3534;5;633;241;19;5;1602;9489;4;823;694;419;690;29;6;1232;6881;4;610;597;602;573;26;7;624;6099;4;679;476;23;8;623;6094;4;676;484;23;9;333;3293;4;375;523;20
24.12.18;13:45:00;1;216;6422;0;2;687;4274;4;748;414;25;3;484;2733;4;543;525;23;4;623;3484;5;648;239;19;5;1737;9354;4;909;757;425;683;28;6;1395;6777;4;737;715;594;561;26;7;1043;6047;4;1117;479;23;8;957;6042;4;1024;471;23;9;502;3265;4;553;518;22